Location: Unspecified
(49.2170°N, 0.0000°E)
Time: 11:17:03
(UTC+00:00)

Transit 2A - Pass Details

Date: 22 June 2019
Orbit: 596 x 962 km, 66.7° (Epoch: 16 August)

Event Time Altitude Azimuth Distance (km) Brightness Sun altitude
Rises 03:54:09 0° 288° (WNW) 3,638 9.2 -0.9°
Reaches altitude 10° 03:57:52 10° 308° (NW) 2,664 8.7 -0.4°
Maximum altitude 04:01:39 16° 346° (NNW) 2,195 8.7 0.1°
Drops below altitude 10° 04:05:18 10° 24° (NNE) 2,559 9.9 0.5°
Sets 04:08:47 0° 45° (NE) 3,428 11.9 1.0°
